Retour au catalogue

SL-3 R/B

ActifPO
NORAD 5918·ROCKET BODY·🇷🇺 Russia

Lancé Mar 30, 1972 depuis Plesetsk Cosmodrome

Loading…

Prochains Passages (prochaines 24 heures)

TLE

FraisSource: Space-Track

Époque: Sep 14, 2026, 02:26 UTC

1 05918U 72022B   26257.10204158  .00000064  00000-0  30933-4 0  9991
2 05918  81.2366 299.3958 0057903 197.4431 162.4751 14.06325073792116

Suivez SL-3 R/B en temps réel avec AllMySat

Download on the App Store